[[{"header":{"parameterUnit":"m.s-1","parameterCategory":1,"la1":30.2991,"la2":30.254,"lo1":-89.0895,"lo2":-89.0444,"dy":0.0017,"dx":0.0017,"nx":28,"ny":28,"refTime":"2025-07-30T03:00:00:Z","depth":0,"parameterNumber":2,"parameterNumberName":"U-component_of_WINDS"},"data":[0,0,0,0,0,0,0,0,0,0,0,0,0,0,0,0,0,0,0,0,0,0,0,0,0,0,0,0,0,0,0,0,0,0,0,0,0,0,0,0,0,0,0,0,0,0,0,0,0,0,0,0,0,0,0,0,0,0,1.9281,1.9282,0,1.9323,1.9324,1.9324,1.9304,1.9303,1.9301,1.93,1.9343,1.9345,1.9347,0,0,0,0,0,0,0,0,0,0,0,0,0,1.9183,1.9185,1.9281,1.9282,1.9282,1.9323,1.9324,1.9324,1.9304,1.9303,1.9301,1.93,1.9342,1.9344,1.9347,0,0,0,0,0,0,0,0,0,0,0,0,0,1.9225,1.9186,1.9281,1.9277,1.9277,1.9323,1.9324,1.9324,1.9304,1.9302,1.9301,1.9299,1.9341,1.9344,1.9347,1.9399,0,0,1.9357,1.9358,0,0,0,0,0,0,0,0,1.9223,1.9229,1.9277,1.9277,1.9278,1.9307,1.9305,1.935,1.9305,1.9294,1.93,1.9299,1.9332,1.9336,1.9347,1.9401,1.9403,1.9357,1.9359,1.9361,1.9361,0,0,0,0,0,0,0,1.922,1.9227,1.9298,1.9278,1.9278,1.9273,1.9277,1.9313,1.9321,1.9295,1.9293,1.9299,1.9332,1.9344,1.9348,1.9404,1.9357,1.936,1.9362,1.9363,1.9504,1.9506,0,0,0,0,0,0,1.9217,1.9225,1.9296,1.9299,1.9246,1.9276,1.9281,1.9299,1.9321,1.9323,1.93,1.9297,1.9339,1.9344,1.9349,1.9412,1.9361,1.9364,1.9365,1.9502,1.9504,1.9506,0,0,0,0,0,0,1.9215,1.9224,1.9295,1.9262,1.927,1.9279,1.93,1.9301,1.9313,1.9325,1.9326,1.9311,1.9338,1.9345,1.9387,1.9413,1.9365,1.9368,1.95,1.9503,1.9505,1.9538,0,0,0,0,0,0,1.9213,1.9223,1.9243,1.9262,1.9272,1.9332,1.9302,1.9303,1.9319,1.9316,1.9336,1.9337,1.9338,1.9383,1.9391,1.9417,1.937,1.9498,1.9501,1.9504,1.9535,1.9542,1.9548,0,0,0,0,0,1.9209,1.9251,1.9244,1.9253,1.9297,1.9334,1.9339,1.9339,1.9321,1.9341,1.9349,1.9337,1.9409,1.9387,1.9396,1.9424,1.9496,1.95,1.9504,1.9532,1.9541,1.9548,0,0,0,0,0,0,1.9234,1.9253,1.9246,1.9295,1.9313,1.933,1.9356,1.9348,1.9371,1.9367,1.9365,1.937,1.9414,1.9423,1.9398,1.9476,1.945,1.9456,1.9468,1.9476,1.9483,1.9479,1.9373,0,0,0,0,0,1.9245,1.9274,1.9289,1.933,1.934,1.9346,1.9362,1.936,1.9379,1.9386,1.9397,1.9415,1.9442,1.946,1.9485,1.9536,1.954,1.956,1.9566,1.9571,1.9576,1.9605,1.9613,1.952,1.952,1.952,0,0,1.9269,1.9282,1.93,1.9336,1.9349,1.9379,1.9353,1.9385,1.9406,1.9391,1.9432,1.9441,1.9461,1.9508,1.9529,1.9517,1.9603,1.9577,1.9581,1.9583,1.961,1.9619,1.9627,1.9522,1.9522,1.9522,0,0,1.9326,1.9339,1.9376,1.939,1.9412,1.9416,1.9425,1.9443,1.9449,1.949,1.9479,1.9505,1.9551,1.9566,1.958,1.9644,1.9634,1.9653,1.9686,1.9713,1.9721,1.9727,1.975,1.9759,1.9658,1.9658,1.9658,0,1.9352,1.9396,1.9395,1.9429,1.9445,1.9432,1.9469,1.9483,1.9512,1.9523,1.9509,1.9567,1.958,1.9631,1.9646,1.9658,1.9668,1.965,1.972,1.9726,1.9733,1.9754,1.9763,1.966,1.966,1.9659,1.9659,0,1.9427,1.9458,1.9485,1.9513,1.9532,1.9567,1.9572,1.9591,1.9588,1.9594,1.9636,1.9651,1.968,1.9692,1.9688,1.9742,1.9734,1.972,1.9694,1.9744,1.9764,1.9773,1.9663,1.9662,1.9662,1.9661,0,0,1.9501,1.9529,1.9539,1.9552,1.9575,1.9599,1.9633,1.9662,1.9678,1.9699,1.9727,1.9768,1.9755,1.977,1.9769,1.9793,1.9844,1.9776,1.9777,1.9788,1.9904,1.9915,1.9924,1.9837,1.9839,1.984,1.9903,0,1.956,1.9621,1.9622,1.9677,1.9706,1.9695,1.9725,1.9743,1.9749,1.9774,1.9782,1.981,1.9791,1.9801,1.9824,1.9833,1.9867,1.9828,1.9864,1.9865,1.9859,1.9935,1.9946,2.0004,1.9911,1.9912,1.9913,0,1.9637,1.9661,1.9719,1.9739,1.9751,1.9778,1.9804,1.9828,1.9848,1.9851,1.9869,1.9864,1.99,1.9873,1.9922,1.9895,1.991,1.9917,1.9919,1.9922,1.9892,1.994,2.0022,2.0031,1.9926,1.9925,1.9924,0,1.9685,1.9731,1.9773,1.9784,1.9808,1.9827,1.9838,1.9856,1.9873,1.9896,1.9907,1.9934,1.9949,1.997,1.9972,1.9953,2.0021,1.9995,2.0025,2.0025,2.0039,2.0038,2.0125,2.0049,2.0049,2.0049,2.0049,0,1.9751,1.9788,1.9794,1.982,1.986,1.9861,1.9901,1.991,1.9927,1.9954,1.9946,1.9971,1.9973,2.0,2.0002,2.0042,2.0049,2.0052,2.0052,2.0053,2.0052,2.0062,2.0058,2.0051,2.0051,2.005,2.005,0,1.9811,1.9818,1.9862,1.9881,1.9887,1.9916,1.9932,1.9956,1.9962,1.9997,2.0005,2.0014,2.0045,2.005,2.0085,2.0087,2.0135,2.0131,2.0129,2.0128,2.0158,2.0155,2.0254,2.0267,2.0183,2.0183,2.0184,0,1.9853,1.9881,1.9903,1.9921,1.9933,1.9961,1.9979,1.9981,2.0,2.0025,2.0046,2.0076,2.01,2.0149,2.0159,2.0187,2.0183,2.0216,2.0187,2.0187,2.0184,2.0182,2.0185,2.0221,2.0222,2.0223,2.0224,0,1.9926,1.9928,1.9954,1.9981,2.0003,2.0024,2.0044,2.0059,2.0064,2.0085,2.0117,2.0135,2.0172,2.0202,2.0229,2.024,2.0233,2.0233,2.0241,2.0242,2.0239,2.0241,2.0143,2.023,2.023,2.0229,2.0229,2.0228,1.9979,2.0003,2.0023,2.0052,2.0068,2.0087,2.0111,2.012,2.0146,2.0177,2.0176,2.0211,2.023,2.0266,2.0279,2.0306,2.0296,2.0308,2.0311,2.0314,2.0317,2.0235,2.0311,2.0311,2.0311,2.0311,2.0311,0,2.0051,2.0064,2.0091,2.012,2.0143,2.0134,2.0156,2.0176,2.0207,2.0226,2.025,2.0286,2.0315,2.0328,2.0356,2.0375,2.0373,2.0383,2.0381,2.0384,2.0324,2.0314,2.0385,2.0385,2.0385,2.0384,2.0384,2.0384,2.0092,2.0133,2.0137,2.0186,2.0198,2.0232,2.0245,2.0263,2.0278,2.0319,2.0344,2.0352,2.0368,2.0398,2.0425,2.0428,2.0438,2.045,2.0452,2.0396,2.0388,2.0381,2.0371,2.0452,2.0453,2.0509,2.0509,2.051]},{"header":{"parameterUnit":"m.s-1","parameterCategory":1,"la1":30.2991,"la2":30.254,"lo1":-89.0895,"lo2":-89.0444,"dy":0.0017,"dx":0.0017,"nx":28,"ny":28,"refTime":"2025-07-30T03:00:00:Z","depth":0,"parameterNumber":3,"parameterNumberName":"V-component_of_WINDS"},"data":[0,0,0,0,0,0,0,0,0,0,0,0,0,0,0,0,0,0,0,0,0,0,0,0,0,0,0,0,0,0,0,0,0,0,0,0,0,0,0,0,0,0,0,0,0,0,0,0,0,0,0,0,0,0,0,0,0,0,-1.383,-1.383,0,-1.3831,-1.3831,-1.3831,-1.3803,-1.3802,-1.3801,-1.3801,-1.3802,-1.3803,-1.3803,0,0,0,0,0,0,0,0,0,0,0,0,0,-1.3802,-1.3803,-1.383,-1.383,-1.383,-1.3831,-1.3831,-1.3831,-1.3803,-1.3802,-1.3801,-1.38,-1.3802,-1.3803,-1.3803,0,0,0,0,0,0,0,0,0,0,0,0,0,-1.381,-1.3803,-1.383,-1.3816,-1.3815,-1.3831,-1.3831,-1.3831,-1.3803,-1.3802,-1.3801,-1.38,-1.3801,-1.3802,-1.3804,-1.3833,0,0,-1.3807,-1.3807,0,0,0,0,0,0,0,0,-1.3809,-1.3811,-1.3818,-1.3817,-1.3815,-1.3816,-1.3822,-1.3832,-1.3803,-1.3807,-1.3801,-1.3799,-1.3807,-1.3808,-1.3811,-1.3833,-1.3833,-1.3807,-1.3808,-1.3808,-1.3809,0,0,0,0,0,0,0,-1.3809,-1.3811,-1.383,-1.3818,-1.3816,-1.3809,-1.3809,-1.3824,-1.3814,-1.3807,-1.3805,-1.3806,-1.3806,-1.381,-1.381,-1.3833,-1.3807,-1.3808,-1.3809,-1.3809,-1.388,-1.3881,0,0,0,0,0,0,-1.381,-1.381,-1.383,-1.383,-1.381,-1.3811,-1.3811,-1.3817,-1.3814,-1.3812,-1.3807,-1.3804,-1.3808,-1.3809,-1.381,-1.3844,-1.3808,-1.3809,-1.381,-1.3879,-1.388,-1.3881,0,0,0,0,0,0,-1.381,-1.3812,-1.383,-1.382,-1.3821,-1.3812,-1.3819,-1.3817,-1.382,-1.3813,-1.3811,-1.3812,-1.3807,-1.3809,-1.3828,-1.3844,-1.381,-1.3811,-1.3877,-1.3879,-1.3881,-1.3913,0,0,0,0,0,0,-1.3809,-1.3812,-1.3824,-1.382,-1.3822,-1.3847,-1.3821,-1.3818,-1.3822,-1.3819,-1.3817,-1.3816,-1.3807,-1.3826,-1.3829,-1.3845,-1.3812,-1.3876,-1.3878,-1.388,-1.3911,-1.3916,-1.392,0,0,0,0,0,-1.3808,-1.3833,-1.3824,-1.3827,-1.3836,-1.3848,-1.3849,-1.3838,-1.3824,-1.3835,-1.383,-1.3816,-1.3842,-1.3828,-1.3831,-1.3848,-1.3875,-1.3877,-1.388,-1.3908,-1.3915,-1.392,0,0,0,0,0,0,-1.3838,-1.3832,-1.3823,-1.3847,-1.3848,-1.3844,-1.3857,-1.3846,-1.3851,-1.3848,-1.3834,-1.3834,-1.3855,-1.3853,-1.3838,-1.3876,-1.3856,-1.3859,-1.3876,-1.3882,-1.3887,-1.3887,-1.3813,0,0,0,0,0,-1.3848,-1.3859,-1.3852,-1.3874,-1.3876,-1.3866,-1.3871,-1.3863,-1.3864,-1.3864,-1.3861,-1.3862,-1.3871,-1.3877,-1.3884,-1.391,-1.3909,-1.3923,-1.3928,-1.3932,-1.3935,-1.3949,-1.3955,-1.389,-1.389,-1.389,0,0,-1.3868,-1.3865,-1.3873,-1.388,-1.388,-1.3892,-1.3867,-1.388,-1.3888,-1.3866,-1.3883,-1.3881,-1.3882,-1.3905,-1.3914,-1.3904,-1.3953,-1.3936,-1.3939,-1.394,-1.3952,-1.3958,-1.3964,-1.3892,-1.3892,-1.3892,0,0,-1.3909,-1.3909,-1.3927,-1.3927,-1.3928,-1.3921,-1.3926,-1.3923,-1.392,-1.3938,-1.3921,-1.3931,-1.3946,-1.3947,-1.3949,-1.3991,-1.3978,-1.3994,-1.4019,-1.4032,-1.4037,-1.4042,-1.4056,-1.4062,-1.3997,-1.3997,-1.3997,0,-1.3933,-1.395,-1.3937,-1.3951,-1.3955,-1.3935,-1.3953,-1.3954,-1.3957,-1.396,-1.3949,-1.3967,-1.3966,-1.3988,-1.3998,-1.4001,-1.4005,-1.3994,-1.4038,-1.4042,-1.4046,-1.406,-1.4065,-1.3999,-1.3998,-1.3998,-1.3998,0,-1.3979,-1.3991,-1.4005,-1.4008,-1.4014,-1.4029,-1.4019,-1.4026,-1.4017,-1.4012,-1.403,-1.4028,-1.4034,-1.4039,-1.403,-1.406,-1.4054,-1.404,-1.4019,-1.4054,-1.4067,-1.4072,-1.4001,-1.4001,-1.4,-1.4,0,0,-1.404,-1.4036,-1.4041,-1.4042,-1.4041,-1.405,-1.4065,-1.4071,-1.4077,-1.408,-1.4092,-1.4105,-1.4092,-1.4095,-1.4086,-1.4098,-1.413,-1.4083,-1.4082,-1.4091,-1.4163,-1.4173,-1.4179,-1.4122,-1.4123,-1.4124,-1.4162,0,-1.4079,-1.4105,-1.4094,-1.412,-1.413,-1.4112,-1.4125,-1.4126,-1.4121,-1.4129,-1.4124,-1.4134,-1.4116,-1.4118,-1.4129,-1.4124,-1.4144,-1.4121,-1.4132,-1.4133,-1.4132,-1.4185,-1.4196,-1.4233,-1.4167,-1.4168,-1.4169,0,-1.4129,-1.4134,-1.4161,-1.4158,-1.4162,-1.4174,-1.4178,-1.4186,-1.4187,-1.4183,-1.4186,-1.4174,-1.4189,-1.4168,-1.4187,-1.4172,-1.4176,-1.4174,-1.4175,-1.4176,-1.4153,-1.4187,-1.4244,-1.425,-1.4176,-1.4176,-1.4175,0,-1.417,-1.4183,-1.4201,-1.4202,-1.4199,-1.4208,-1.4207,-1.4206,-1.4211,-1.4215,-1.4217,-1.4223,-1.4227,-1.4231,-1.4222,-1.4208,-1.4242,-1.4221,-1.4239,-1.4239,-1.4247,-1.4246,-1.4305,-1.425,-1.425,-1.425,-1.425,0,-1.4216,-1.4233,-1.4219,-1.423,-1.4249,-1.4236,-1.4255,-1.4252,-1.4251,-1.4261,-1.4246,-1.4256,-1.4242,-1.4251,-1.4243,-1.426,-1.4262,-1.4259,-1.4257,-1.426,-1.426,-1.4262,-1.4259,-1.4251,-1.4251,-1.4251,-1.4251,0,-1.4264,-1.4256,-1.4274,-1.4269,-1.4269,-1.4283,-1.4279,-1.4288,-1.4283,-1.4296,-1.4298,-1.4289,-1.4298,-1.4289,-1.4298,-1.4293,-1.4315,-1.4309,-1.4315,-1.4313,-1.4332,-1.433,-1.4394,-1.4401,-1.4341,-1.4342,-1.4342,0,-1.4294,-1.4306,-1.4303,-1.4309,-1.4309,-1.4318,-1.4322,-1.431,-1.4315,-1.4316,-1.4326,-1.4334,-1.4339,-1.4354,-1.4349,-1.4355,-1.4349,-1.4371,-1.435,-1.4353,-1.4349,-1.4348,-1.4349,-1.4375,-1.4376,-1.4377,-1.4377,0,-1.4347,-1.4342,-1.4348,-1.4354,-1.4359,-1.4363,-1.4365,-1.4371,-1.4358,-1.4365,-1.4374,-1.4378,-1.4386,-1.4394,-1.4399,-1.4398,-1.4385,-1.4384,-1.4388,-1.4392,-1.4394,-1.4393,-1.4326,-1.4382,-1.4382,-1.4381,-1.4381,-1.4381,-1.4386,-1.4397,-1.4396,-1.4404,-1.4404,-1.4407,-1.4416,-1.4411,-1.4418,-1.4424,-1.4417,-1.4428,-1.4427,-1.4432,-1.4433,-1.4441,-1.4432,-1.4438,-1.444,-1.4442,-1.4444,-1.4393,-1.4442,-1.4442,-1.4441,-1.4441,-1.4441,0,-1.4438,-1.4437,-1.4444,-1.4448,-1.4454,-1.4442,-1.4444,-1.445,-1.4459,-1.446,-1.4466,-1.4476,-1.4483,-1.4478,-1.4484,-1.4492,-1.4486,-1.4494,-1.4493,-1.4493,-1.4452,-1.4448,-1.4498,-1.4498,-1.4498,-1.4498,-1.4498,-1.4498,-1.4466,-1.4483,-1.4478,-1.4494,-1.4492,-1.4503,-1.4505,-1.4507,-1.4508,-1.4519,-1.4525,-1.4522,-1.452,-1.4526,-1.4532,-1.4531,-1.4534,-1.4543,-1.4539,-1.4501,-1.4496,-1.449,-1.4486,-1.4544,-1.4544,-1.4579,-1.458,-1.458]}]]